Temp
17 17 16 16 16 16 16 16 16 16 16 16 16 15 15 15 15 16 16 16 16 16 15 15 15 15 14 15 16 16 17 17 17 18 17 17 17 17 16 15 15 15 15
17 17 17 16 16 16 16 16 16 16 15 16 15 16 16 15 15 15 15 15 15 14 14 14 14 13 14 14 15 14 14 16 17 17 17 16 16 15 15 15 15 14 16
17 17 16 16 16 15 15 15 15 15 15 15 15 15 15 15 15 15 15 14 14 14 14 14 14 14 15 15 15 15 16 16 16 16 16 16 15 15 14 15 15 15 16
18 17 16 16 16 15 15 15 15 15 15 15 15 15 14 14 14 14 14 13 13 13 13 14 14 14 14 14 14 15 15 15 15 14 14 14 14 13 14 14 14 14 14
18 17 17 16 16 16 15 15 15 14 14 14 14 14 14 14 13 13 13 13 13 13 13 13 14 13 13 13 14 14 14 14 13 12 13 13 13 13 12 13 13 13 13
19 17 16 16 16 15 15 15 14 14 13 13 13 14 14 13 13 13 13 13 13 13 12 12 12 12 12 12 12 12 12 12 12 12 12 12 12 12 12 12 13 12 12
18 17 17 16 16 15 14 14 13 14 14 14 14 14 14 13 12 12 12 12 12 12 11 12 12 12 12 12 12 12 11 12 13 13 12 12 11 11 11 12 12 12 12
16 17 16 16 16 15 14 14 14 14 14 13 13 13 13 12 12 12 12 11 12 12 11 11 11 11 11 10 10 11 12 12 11 11 11 11 11 11 11 11 12 11 10
17 16 16 16 16 15 14 13 13 14 14 14 13 14 13 12 11 11 12 12 11 10 10 10 10 10 10 10 10 11 11 11 10 10 11 11 10 10 11 11 11 10 10
16 16 16 16 15 15 14 13 14 13 13 13 13 12 12 12 11 11 11 11 11 10 10 10 9 10 9 9 10 10 10 10 9 9 9 9 9 10 10 9 9 8 8
14 16 15 15 15 15 14 13 13 12 12 11 11 11 11 10 10 10 11 11 10 9 9 9 8 8 8 8 8 8 9 8 8 8 7 6 6 8 8 7 7 6 6
14 14 14 14 14 13 13 12 11 11 11 10 10 10 9 9 9 8 8 8 9 9 8 7 7 7 7 7 7 7 6 7 7 7 7 6 5 5 5 5 5 6 5
13 13 13 12 12 11 12 11 10 10 9 9 8 9 8 8 8 8 8 7 7 7 7 6 6 6 6 6 6 6 5 5 5 5 5 5 4 4 5 5 4 4 4
12 11 10 10 10 10 10 9 9 9 8 8 8 8 8 7 7 7 7 6 6 6 6 5 4 4 4 4 4 4 4 4 4 4 4 4 4 4 4 4 4 4 4
10 10 10 9 9 9 8 7 8 7 7 8 7 7 8 7 7 7 6 5 5 5 4 4 4 4 3 3 3 3 3 3 3 3 3 3 3 3 3 3 3 3 3
10 9 9 9 8 8 8 7 7 7 7 7 7 7 7 7 7 6 5 5 4 4 4 4 3 3 3 3 3 3 3 3 3 2 2 2 2 2 2 3 3 3 3
9 8 8 9 9 8 8 8 8 7 7 6 6 7 6 6 6 5 5 5 5 5 4 4 4 4 3 3 3 3 3 2 2 2 2 2 2 2 2 2 2 2 2
9 9 9 9 9 8 8 8 8 7 7 6 6 6 5 5 5 5 5 5 5 5 5 5 4 4 3 3 3 3 2 2 2 2 2 2 1 1 1 2 2 2 2
9 9 9 9 9 9 8 8 8 8 7 6 6 6 6 5 5 5 5 5 5 5 5 4 4 4 3 3 3 2 2 2 2 1 1 1 1 1 1 1 1 1 2
10 9 10 10 10 9 9 8 7 8 7 6 6 6 6 5 5 5 5 5 5 5 4 4 4 3 3 2 2 2 2 2 2 1 1 1 0 0 0 1 1 1 1
10 10 10 10 10 10 10 9 9 8 7 6 6 6 6 6 6 5 5 5 4 4 4 4 3 3 3 2 2 2 2 1 1 1 1 0 -0 -0 -0 0 0 1 1
11 11 11 10 10 10 9 9 9 8 7 7 7 7 6 6 5 5 5 4 4 3 3 3 3 3 3 2 2 1 1 1 1 1 1 0 -0 -1 -1 -0 -0 0 0
11 11 10 10 10 10 9 9 8 8 7 7 7 7 6 6 5 5 4 4 3 3 3 2 2 2 2 2 1 1 1 1 1 0 0 -0 -0 -1 -1 -1 -0 -0 0
11 11 11 10 10 9 9 8 8 8 7 7 7 7 6 6 5 5 4 4 3 3 3 2 2 2 2 2 1 1 0 0 -0 -0 -0 -0 -1 -1 -1 -1 -1 -1 -0
10 10 10 10 10 9 9 9 8 8 8 7 7 7 6 6 5 5 4 3 3 3 3 3 2 2 2 1 0 0 0 0 0 0 -0 -0 -1 -1 -1 -1 -1 -1 -0
10 10 10 10 9 9 9 9 9 8 8 8 7 7 6 6 5 5 4 4 3 3 3 2 2 1 1 1 1 1 0 0 -0 -0 -0 -1 -1 -1 -1 -1 -1 -1 -0
Height
1510 1510 1510 1510 1509 1508 1507 1505 1503 1503 1502 1501 1501 1502 1503 1506 1509 1512 1517 1521 1523 1526 1528 1530 1533 1535 1539 1541 1541 1541 1542 1543 1543 1545 1546 1546 1546 1547 1548 1550 1554 1556 1557
1510 1509 1510 1511 1510 1510 1509 1508 1507 1506 1505 1505 1503 1504 1505 1506 1508 1512 1514 1518 1520 1523 1526 1529 1530 1534 1537 1540 1538 1538 1540 1540 1540 1543 1543 1544 1545 1545 1545 1550 1553 1552 1555
1510 1510 1511 1512 1512 1511 1511 1511 1510 1509 1509 1508 1508 1507 1508 1509 1511 1513 1516 1517 1520 1522 1524 1527 1529 1532 1535 1537 1537 1536 1534 1537 1538 1541 1542 1543 1544 1546 1546 1549 1550 1552 1552
1510 1511 1511 1513 1513 1512 1512 1512 1512 1511 1511 1512 1511 1511 1512 1513 1515 1516 1517 1517 1520 1522 1524 1526 1528 1530 1531 1532 1534 1534 1534 1536 1537 1540 1540 1542 1543 1544 1545 1547 1548 1549 1550
1510 1511 1512 1513 1514 1514 1513 1513 1513 1514 1514 1515 1515 1515 1516 1516 1518 1519 1520 1521 1522 1523 1524 1525 1527 1528 1530 1531 1532 1532 1533 1534 1535 1537 1539 1541 1542 1544 1545 1545 1546 1547 1548
1509 1510 1511 1512 1514 1515 1514 1514 1514 1515 1516 1517 1517 1517 1518 1518 1520 1520 1521 1522 1523 1524 1524 1525 1526 1527 1528 1529 1530 1530 1531 1533 1534 1535 1536 1536 1538 1539 1541 1542 1542 1544 1547
1507 1508 1510 1512 1513 1515 1515 1514 1515 1516 1517 1518 1519 1519 1520 1521 1521 1522 1522 1522 1523 1523 1524 1526 1527 1528 1528 1529 1530 1530 1530 1531 1532 1533 1534 1535 1537 1539 1539 1542 1544 1545 1546
1505 1507 1508 1510 1513 1514 1514 1515 1515 1517 1517 1518 1519 1520 1521 1522 1523 1524 1523 1523 1524 1525 1526 1527 1528 1529 1530 1531 1532 1532 1532 1532 1533 1533 1535 1536 1537 1539 1540 1541 1542 1543 1545
1503 1505 1507 1507 1510 1511 1513 1515 1516 1517 1518 1519 1519 1520 1521 1522 1524 1525 1525 1525 1526 1527 1528 1529 1530 1531 1532 1532 1532 1533 1533 1534 1535 1535 1536 1536 1537 1538 1539 1539 1539 1542 1543
1498 1501 1504 1506 1508 1509 1511 1514 1515 1516 1517 1519 1519 1520 1521 1522 1524 1525 1526 1527 1527 1527 1529 1530 1530 1531 1531 1532 1534 1533 1533 1534 1536 1535 1535 1535 1534 1534 1535 1536 1536 1537 1539
1496 1498 1501 1504 1507 1509 1510 1513 1515 1516 1517 1518 1519 1520 1521 1522 1524 1525 1526 1526 1526 1526 1528 1529 1530 1531 1532 1532 1533 1534 1533 1533 1533 1533 1532 1531 1531 1529 1530 1531 1532 1532 1536
1495 1497 1499 1502 1505 1507 1510 1512 1515 1515 1516 1518 1519 1520 1521 1522 1524 1525 1526 1528 1528 1528 1529 1530 1532 1533 1532 1533 1534 1534 1535 1534 1533 1533 1533 1532 1531 1532 1531 1532 1532 1531 1533
1496 1497 1499 1500 1504 1506 1509 1512 1514 1515 1517 1518 1520 1521 1523 1523 1524 1527 1528 1529 1529 1529 1530 1531 1532 1531 1532 1533 1534 1533 1534 1533 1532 1534 1533 1533 1532 1533 1531 1532 1533 1533 1532
1497 1500 1501 1502 1504 1508 1510 1513 1514 1516 1518 1519 1521 1523 1524 1525 1526 1527 1529 1531 1531 1531 1531 1532 1533 1535 1535 1535 1535 1535 1534 1534 1533 1533 1533 1533 1534 1532 1531 1530 1531 1532 1532
1500 1503 1505 1508 1510 1510 1512 1516 1518 1519 1522 1521 1523 1524 1525 1527 1528 1529 1531 1532 1533 1533 1534 1535 1536 1537 1536 1537 1537 1536 1537 1536 1534 1533 1533 1533 1534 1532 1531 1531 1531 1531 1530
1504 1507 1510 1512 1514 1516 1517 1519 1522 1523 1524 1525 1526 1527 1527 1529 1530 1531 1532 1534 1535 1536 1537 1538 1538 1539 1539 1539 1539 1538 1537 1536 1535 1535 1534 1533 1533 1532 1531 1531 1530 1529 1528
1510 1513 1515 1518 1520 1521 1523 1525 1525 1527 1528 1529 1529 1530 1531 1531 1532 1534 1535 1537 1538 1539 1540 1539 1540 1540 1540 1539 1539 1538 1537 1536 1535 1535 1535 1534 1533 1532 1531 1530 1529 1528 1528
1517 1519 1521 1523 1524 1526 1528 1529 1530 1530 1530 1531 1532 1533 1534 1535 1537 1538 1539 1539 1540 1540 1540 1540 1541 1541 1541 1540 1539 1538 1537 1537 1536 1535 1534 1533 1532 1531 1530 1529 1529 1528 1527
1522 1523 1525 1527 1527 1528 1529 1531 1532 1532 1533 1534 1536 1537 1538 1538 1539 1540 1540 1541 1541 1541 1541 1541 1540 1540 1540 1539 1538 1537 1537 1536 1536 1535 1534 1533 1531 1531 1530 1529 1528 1528 1527
1525 1526 1528 1529 1529 1531 1532 1531 1532 1534 1535 1536 1537 1539 1540 1540 1540 1541 1541 1542 1542 1541 1541 1541 1540 1539 1538 1537 1537 1536 1536 1535 1535 1534 1533 1532 1531 1530 1529 1528 1527 1527 1526
1529 1530 1532 1533 1535 1535 1536 1537 1537 1534 1536 1536 1537 1537 1539 1540 1540 1540 1541 1541 1541 1540 1540 1541 1540 1538 1537 1537 1537 1536 1535 1534 1533 1533 1533 1531 1530 1529 1528 1527 1527 1526 1525
1530 1531 1532 1533 1534 1534 1535 1535 1536 1536 1534 1535 1537 1537 1538 1540 1540 1540 1540 1540 1540 1539 1539 1538 1539 1539 1538 1537 1535 1535 1534 1533 1532 1531 1531 1530 1529 1528 1527 1526 1525 1525 1524
1530 1530 1531 1532 1532 1532 1534 1534 1534 1534 1535 1535 1536 1537 1539 1539 1539 1539 1539 1539 1538 1538 1538 1538 1538 1538 1537 1535 1534 1534 1533 1531 1530 1529 1529 1527 1526 1526 1525 1525 1524 1523 1522
1529 1529 1529 1528 1529 1530 1531 1531 1532 1533 1533 1534 1535 1535 1536 1537 1537 1537 1537 1537 1537 1537 1537 1537 1536 1536 1535 1534 1533 1532 1531 1530 1528 1527 1525 1524 1523 1524 1524 1523 1522 1522 1521
1527 1526 1527 1526 1526 1527 1528 1529 1529 1530 1531 1532 1533 1534 1534 1534 1534 1534 1534 1535 1535 1536 1535 1534 1534 1533 1533 1531 1530 1529 1528 1526 1525 1523 1522 1521 1522 1523 1522 1522 1521 1520 1519
1525 1526 1526 1525 1525 1526 1526 1526 1526 1528 1528 1529 1530 1530 1531 1531 1531 1531 1531 1532 1533 1533 1532 1531 1530 1530 1530 1529 1529 1527 1525 1524 1523 1522 1520 1520 1521 1522 1521 1521 1520 1519 1518
Wind_Speed
1 5 8 8 8 10 12 14 14 11 10 8 6 4 4 10 14 16 16 17 16 16 15 18 19 21 15 12 13 14 13 6 7 8 13 14 14 15 11 9 8 11 11
3 4 5 3 8 8 6 11 10 10 9 10 7 6 6 8 13 14 17 15 14 13 13 13 12 13 16 12 4 3 5 10 6 9 13 14 14 11 10 12 14 13 12
3 3 3 3 7 8 7 7 8 6 7 7 8 7 6 7 9 11 12 16 17 17 16 15 16 17 18 13 7 5 6 5 5 6 9 9 8 11 13 14 11 13 12
4 1 3 4 3 5 6 6 6 5 7 8 10 12 11 9 8 9 13 18 20 18 17 15 13 11 9 7 13 11 7 7 4 2 4 6 4 8 12 12 11 10 12
2 1 4 3 4 2 4 6 4 5 6 7 8 9 10 10 9 6 4 4 6 9 11 12 14 13 13 12 11 13 16 14 7 3 5 7 11 11 11 9 13 12 10
5 3 7 6 6 2 6 8 9 8 8 6 6 5 7 6 6 4 2 2 3 4 5 6 7 7 8 8 5 7 9 8 5 8 9 9 13 14 13 12 14 13 11
8 7 10 6 5 5 6 7 8 9 9 7 7 7 5 6 6 5 6 5 6 7 6 5 4 4 3 2 4 8 6 6 8 9 10 14 15 12 11 12 11 10 9
9 10 13 8 10 10 9 7 8 8 8 9 7 5 5 7 7 7 7 3 4 5 5 4 5 4 3 4 2 2 1 3 7 9 9 10 7 6 6 8 11 8 5
10 14 19 16 17 16 13 11 12 9 7 6 6 7 8 8 7 6 3 1 0 4 5 5 5 5 5 3 2 3 6 7 8 7 6 5 4 4 5 4 4 5 6
17 15 21 18 18 16 12 12 11 8 4 3 7 9 12 13 11 8 5 4 5 7 8 10 9 8 6 3 3 5 5 6 4 3 1 2 4 6 8 8 6 6 7
11 15 21 20 17 13 14 11 8 5 4 3 8 11 14 15 14 9 9 7 7 10 11 12 12 10 8 5 3 2 2 2 1 2 4 4 1 8 9 10 9 9 9
17 19 22 18 14 15 11 9 9 6 4 9 11 12 13 14 13 13 7 2 1 6 7 7 6 6 4 4 5 2 3 2 2 3 2 2 1 6 10 11 12 14 7
21 22 19 19 20 17 12 11 9 7 8 11 10 10 11 9 8 8 5 1 4 4 4 3 2 5 5 3 2 4 4 2 2 1 2 1 2 4 6 9 2 6 3
18 18 20 20 20 18 17 15 14 14 14 13 13 13 12 12 11 11 9 8 8 9 11 15 16 15 14 15 13 11 6 5 1 3 3 3 4 6 6 6 6 5 4
22 20 20 20 20 21 21 20 17 17 13 13 13 12 10 10 11 11 12 14 15 15 15 14 12 11 11 10 10 10 12 10 4 6 5 4 4 5 5 7 1 3 5
23 22 21 21 21 19 19 23 21 19 16 14 13 11 12 11 12 14 16 17 17 16 14 10 7 6 5 5 5 7 10 13 8 4 5 7 8 7 7 4 6 5 5
25 25 24 23 22 21 21 22 25 22 17 15 13 12 13 15 18 19 18 17 13 11 10 12 11 10 10 8 4 3 5 6 2 3 6 7 8 8 6 6 6 8 7
26 25 23 24 23 21 21 19 19 19 21 21 19 16 16 17 17 16 15 12 11 9 3 3 3 2 2 0 3 4 7 4 8 5 4 5 8 8 7 7 7 9 10
20 17 12 12 15 13 13 13 13 10 13 17 17 19 18 16 14 14 12 10 10 8 4 3 2 2 3 7 7 6 3 4 5 3 5 8 8 8 6 8 6 8 6
11 14 11 11 8 7 7 8 5 3 8 11 11 12 8 8 9 10 9 6 3 2 3 5 4 4 5 3 2 4 2 3 2 2 8 7 7 6 8 7 6 5 7
9 11 11 9 11 11 7 6 4 7 9 6 4 2 2 6 10 10 6 2 3 5 5 5 1 2 2 2 5 7 2 4 6 8 13 9 5 4 8 9 8 4 7
6 6 9 9 8 5 6 7 7 5 4 3 1 3 13 7 9 4 2 3 3 3 6 3 5 1 5 5 7 6 1 7 8 9 11 12 6 4 7 5 4 6 7
4 2 13 11 11 6 3 2 3 6 6 5 4 5 10 7 3 3 3 3 3 3 3 6 2 3 1 2 5 5 8 11 14 14 14 16 7 5 5 3 5 7 6
3 5 7 9 10 8 7 4 2 6 1 9 8 6 8 6 4 5 6 7 6 2 2 4 6 8 10 14 13 8 8 9 12 17 19 14 4 5 3 4 6 9 3
2 5 3 4 10 8 8 7 8 9 11 11 7 8 8 8 8 8 6 5 2 1 8 7 7 10 14 5 6 7 10 13 13 10 7 5 4 5 4 7 7 1 4
6 6 7 4 4 10 11 9 8 14 8 5 9 10 8 7 6 9 10 8 5 3 8 7 9 8 8 4 12 9 7 6 5 7 6 1 4 5 5 9 6 4 7
Wind_Direction
84 37 32 61 71 58 50 49 46 48 50 63 85 108 180 201 203 211 210 203 198 207 212 210 207 201 204 239 273 236 225 252 239 231 216 220 214 217 201 206 202 215 215
129 52 36 56 40 30 28 32 44 47 47 62 77 90 100 147 163 168 181 191 202 183 188 185 193 203 212 249 275 212 191 218 250 250 213 215 215 241 218 219 212 221 222
95 35 10 20 8 16 21 31 25 43 55 63 66 85 104 140 153 182 192 194 191 188 190 191 198 209 219 224 212 197 183 216 217 223 236 232 215 235 239 221 221 207 207
33 68 82 77 16 350 6 18 15 46 75 91 81 75 77 93 121 142 172 175 175 180 185 189 191 197 202 221 241 245 237 218 193 53 226 206 239 226 232 219 208 193 203
328 98 112 95 76 44 20 36 63 76 92 98 78 80 84 94 103 120 157 195 210 220 228 230 241 240 249 265 260 251 251 263 260 301 272 253 246 239 212 212 205 198 194
274 270 157 134 142 118 60 79 93 92 105 108 109 101 89 102 98 104 111 166 209 249 237 230 228 233 241 239 246 257 248 246 247 252 236 237 226 223 229 206 201 176 186
232 216 194 179 145 116 123 124 118 120 121 119 117 117 109 121 111 98 97 123 136 121 123 144 148 159 189 199 299 285 290 284 282 243 217 198 189 184 178 184 179 192 200
190 192 197 189 146 160 171 172 155 138 136 145 156 163 152 143 127 118 132 88 139 151 141 133 108 126 137 91 88 157 138 111 97 128 151 157 177 188 204 207 208 199 198
203 197 185 180 175 187 192 180 168 171 156 153 159 164 160 151 150 168 148 105 51 154 141 150 150 171 182 213 165 153 136 121 103 102 102 118 144 173 196 209 207 196 173
193 200 190 194 194 193 189 176 178 192 197 193 174 168 158 157 168 178 199 220 223 201 182 177 173 178 191 180 166 137 125 108 87 86 40 315 272 258 261 269 262 261 249
202 204 190 191 199 197 182 182 188 212 210 193 166 163 161 164 165 189 212 202 190 171 167 162 161 162 179 192 163 203 236 203 147 105 92 111 265 278 299 323 325 337 316
174 181 181 185 176 169 175 175 179 176 177 153 155 156 160 159 157 168 178 186 209 196 172 143 156 186 192 222 258 284 91 79 313 315 318 162 351 309 317 333 320 304 297
161 158 155 156 158 153 162 170 154 131 137 132 129 130 134 138 159 187 222 124 120 127 148 161 133 82 66 48 329 325 338 19 61 92 141 142 11 338 327 319 311 303 266
144 140 133 131 133 132 127 120 115 115 122 119 119 119 116 112 111 109 109 109 102 96 91 81 77 71 64 55 51 47 48 57 256 265 290 318 304 301 314 337 321 298 293
126 120 119 120 120 121 118 114 117 113 108 109 112 113 110 110 109 109 107 104 96 86 79 76 74 75 69 66 50 38 32 26 36 60 48 22 338 330 316 340 294 334 326
120 119 117 116 114 113 115 111 104 96 94 95 97 97 104 107 108 110 107 99 92 89 91 95 93 54 61 70 58 24 31 27 54 42 12 9 10 357 351 11 18 349 321
112 110 106 101 100 101 102 99 92 86 83 85 89 94 102 107 108 108 108 104 100 90 80 75 69 58 55 56 63 8 355 356 33 26 11 1 349 346 348 359 358 342 326
101 100 102 97 96 94 93 86 73 77 82 83 87 95 104 110 112 110 110 114 123 123 60 47 58 138 103 235 281 300 316 308 333 312 2 343 333 342 351 351 340 343 345
101 100 99 100 103 111 111 101 90 83 99 94 92 94 98 105 112 111 100 94 101 98 61 29 23 332 307 319 310 325 34 6 19 34 354 336 345 342 340 343 335 345 358
110 112 109 106 122 143 138 126 128 134 128 122 113 112 113 130 128 125 116 98 122 118 123 86 19 344 0 359 43 8 57 328 201 283 313 324 336 336 342 327 318 330 342
142 129 127 145 143 137 137 145 146 90 154 124 76 356 106 112 142 125 124 166 240 253 266 263 161 3 196 287 334 326 68 306 264 295 322 315 307 329 330 319 306 325 343
144 130 149 150 186 203 229 229 223 237 186 159 16 61 145 117 144 169 196 268 295 300 310 336 189 355 349 328 354 19 176 309 282 303 318 344 328 306 335 325 344 351 334
172 251 183 204 235 253 262 277 270 167 180 236 204 126 164 169 227 244 216 238 274 285 352 84 35 195 228 284 294 298 283 284 293 300 307 320 317 251 332 338 356 340 333
173 345 218 251 227 222 223 240 111 184 211 197 205 182 162 185 226 246 262 255 301 203 249 204 278 270 281 289 282 277 294 295 299 302 306 313 301 269 107 348 329 316 340
218 31 262 253 233 216 228 242 215 198 191 196 199 218 229 244 252 259 259 267 298 219 212 265 267 286 310 336 346 308 294 295 301 310 320 327 140 137 33 328 313 21 20
237 321 276 255 290 246 250 229 233 194 206 234 216 230 234 241 267 254 240 262 225 267 239 265 288 317 344 17 9 1 341 337 353 9 357 112 162 107 49 7 14 36 14